TimeEDT,TemperatureF,Dew PointF,Humidity,Sea Level PressureIn,VisibilityMPH,Wind Direction,Wind SpeedMPH,Gust SpeedMPH,PrecipitationIn,Events,Conditions,WindDirDegrees,DateUTC
12:03 AM,44.6,44.6,100,30.09,1.8,Calm,Calm,-,N/A,,Overcast,0,2013-09-15 04:03:00
12:20 AM,44.6,44.6,100,30.09,0.8,Calm,Calm,-,N/A,,Overcast,0,2013-09-15 04:20:00
12:54 AM,45.0,44.1,97,30.10,0.2,Calm,Calm,-,N/A,Fog,Fog,0,2013-09-15 04:54:00
1:54 AM,44.1,43.0,96,30.11,0.2,Calm,Calm,-,N/A,Fog,Fog,0,2013-09-15 05:54:00
2:54 AM,43.0,42.1,97,30.11,0.2,Calm,Calm,-,N/A,Fog,Fog,0,2013-09-15 06:54:00
3:54 AM,43.0,42.1,97,30.12,0.2,Calm,Calm,-,N/A,Fog,Fog,0,2013-09-15 07:54:00
4:54 AM,43.0,43.0,100,30.13,0.2,Calm,Calm,-,N/A,Fog,Fog,0,2013-09-15 08:54:00
5:54 AM,44.1,43.0,96,30.13,0.5,Calm,Calm,-,N/A,Fog,Fog,0,2013-09-15 09:54:00
6:54 AM,44.1,43.0,96,30.14,0.5,Calm,Calm,-,N/A,Fog,Fog,0,2013-09-15 10:54:00
7:03 AM,44.6,42.8,93,30.13,1.5,Calm,Calm,-,N/A,,Overcast,0,2013-09-15 11:03:00
7:17 AM,44.6,42.8,93,30.13,1.0,Calm,Calm,-,N/A,,Overcast,0,2013-09-15 11:17:00
7:24 AM,44.6,42.8,93,30.13,1.5,Variable,3.5,-,N/A,,Overcast,0,2013-09-15 11:24:00
7:31 AM,44.6,42.8,93,30.13,0.8,Calm,Calm,-,N/A,,Overcast,0,2013-09-15 11:31:00
7:44 AM,44.6,44.6,100,30.13,1.2,Calm,Calm,-,N/A,,Overcast,0,2013-09-15 11:44:00
7:54 AM,45.0,44.1,97,30.15,1.8,South,3.5,-,N/A,,Overcast,180,2013-09-15 11:54:00
8:05 AM,44.6,44.6,100,30.13,3.0,Calm,Calm,-,N/A,,Overcast,0,2013-09-15 12:05:00
8:54 AM,46.9,46.0,97,30.16,10.0,Calm,Calm,-,N/A,,Overcast,0,2013-09-15 12:54:00
9:46 AM,50.0,46.4,87,30.14,10.0,Calm,Calm,-,N/A,,Mostly Cloudy,0,2013-09-15 13:46:00
9:54 AM,51.1,46.9,86,30.16,10.0,Calm,Calm,-,N/A,,Scattered Clouds,0,2013-09-15 13:54:00
10:54 AM,61.0,46.9,60,30.14,10.0,Variable,5.8,-,N/A,,Scattered Clouds,0,2013-09-15 14:54:00
11:54 AM,64.0,46.9,54,30.12,10.0,Variable,4.6,-,N/A,,Partly Cloudy,0,2013-09-15 15:54:00
12:54 PM,66.9,46.9,49,30.10,10.0,West,9.2,-,N/A,,Mostly Cloudy,260,2013-09-15 16:54:00
1:54 PM,66.9,46.0,47,30.08,10.0,SSW,6.9,-,N/A,,Scattered Clouds,210,2013-09-15 17:54:00
2:54 PM,66.9,45.0,45,30.07,10.0,Variable,5.8,-,N/A,,Clear,0,2013-09-15 18:54:00
3:54 PM,64.9,44.1,47,30.07,10.0,Variable,4.6,-,N/A,,Clear,0,2013-09-15 19:54:00
4:54 PM,64.0,48.0,56,30.07,10.0,Variable,3.5,-,N/A,,Clear,0,2013-09-15 20:54:00
5:54 PM,61.0,53.1,75,30.06,10.0,Calm,Calm,-,N/A,,Clear,0,2013-09-15 21:54:00
6:54 PM,57.9,53.1,84,30.05,10.0,Calm,Calm,-,N/A,,Clear,0,2013-09-15 22:54:00
7:54 PM,57.0,53.1,87,30.07,10.0,Calm,Calm,-,N/A,,Clear,0,2013-09-15 23:54:00
8:54 PM,55.9,52.0,87,30.07,10.0,Calm,Calm,-,N/A,,Partly Cloudy,0,2013-09-16 00:54:00
9:54 PM,57.9,51.1,78,30.05,10.0,SSW,6.9,-,N/A,,Clear,200,2013-09-16 01:54:00
10:54 PM,55.9,51.1,84,30.03,10.0,Calm,Calm,-,N/A,,Scattered Clouds,0,2013-09-16 02:54:00
11:54 PM,55.9,51.1,84,30.04,10.0,Calm,Calm,-,N/A,,Mostly Cloudy,0,2013-09-16 03:54:00